[Date Prev][Date Next][Thread Prev][Thread Next] - [Date Index][Thread Index][Author Index]

2 Line ISS Keps 12-25



ISS
1 25544U 98067A   01359.13038321  .00056889  00000-0  67179-3 0  8829
2 25544  51.6396 207.9065 0002782  67.4475  78.0593 15.60755791176870


----
Via the sarex mailing list at AMSAT.ORG courtesy of AMSAT-NA.
To unsubscribe, send "unsubscribe sarex" to Majordomo@amsat.org



AMSAT Top AMSAT Home